Regional Weather Roundup
Issued by NWS

Home | Current Version | Previous Version | Graphics & Text | Print | Product List | Glossary On
Versions: 1 2 3 4 5 6 7 8 9 10 11 12 13 14 15 16 17 18 19 20 21 22 23 24 25 26 27 28 29 30 31 32 33 34 35 36 37 38 39 40 41 42 43 44 45 46 47 48 49 50
253
ASUS43 KOAX 191210
RWRNE

WEATHER ROUNDUP FOR NEBRASKA
NATIONAL WEATHER SERVICE OMAHA NE
600 AM CST SUN NOV 19 2017

NOTES: SATELLITE DATA IS BEING USED TO AUGMENT CLOUD COVER ABOVE
       12000 FEET.
       "FAIR" INDICATES FEW OR NO CLOUDS BELOW 12,000 FEET WITH NO
       SIGNIFICANT WEATHER AND/OR OBSTRUCTIONS TO VISIBILITY.


NEZ001>004-019>022-054>056-191300-
NEBRASKA PANHANDLE

CITY           SKY/WX    TMP DP  RH WIND       PRES   REMARKS
SCOTTSBLUFF    CLOUDY    20  12  71 CALM      30.13F
6HR MIN TEMP:  18; 6HR MAX TEMP:  26;

ALLIANCE       CLOUDY    12  10  92 S3        30.10F
6HR MIN TEMP:  11; 6HR MAX TEMP:  17;

CHADRON        CLOUDY    20  16  84 SW5       30.09F WCI  13
6HR MIN TEMP:  18; 6HR MAX TEMP:  26;

GORDON         FAIR      26  19  74 W5        30.07F WCI  20
6HR MIN TEMP:  20; 6HR MAX TEMP:  28;

KIMBALL        CLOUDY    24  16  73 W13       30.13F WCI  12
SIDNEY         CLOUDY    20  14  77 W8        30.14F WCI  10
6HR MIN TEMP:  17; 6HR MAX TEMP:  27;

$$

NEZ057>060-069>072-079>082-191300-
SOUTHWEST NEBRASKA

CITY           SKY/WX    TMP DP  RH WIND       PRES   REMARKS
NORTH PLATTE   CLOUDY    19  16  88 W6        30.18F WCI  11
6HR MIN TEMP:  16; 6HR MAX TEMP:  23;

IMPERIAL       CLOUDY    20  15  81 W9        30.19F WCI   9
6HR MIN TEMP:  19; 6HR MAX TEMP:  29;

LEXINGTON      CLOUDY    22  18  83 CALM      30.19F
MCCOOK         CLEAR     23  19  85 W9        30.21F WCI  13
6HR MIN TEMP:  22; 6HR MAX TEMP:  28;

OGALLALA       CLOUDY    20  17  86 W9        30.17F WCI  10
$$

NEZ005>010-023>029-035>040-094-191300-
NORTH CENTRAL NEBRASKA

CITY           SKY/WX    TMP DP  RH WIND       PRES   REMARKS
VALENTINE      CLEAR     22  17  81 W7        30.09F WCI  13
6HR MIN TEMP:  22; 6HR MAX TEMP:  30;

AINSWORTH      CLEAR     24  20  85 SW8       30.10S WCI  15
BROKEN BOW     CLEAR     26  18  71 CALM      30.14F
6HR MIN TEMP:  25; 6HR MAX TEMP:  31;

O`NEILL        CLEAR     22  20  93 SW6       30.13S WCI  14
ORD            CLEAR     22  18  85 NE3       30.15F
6HR MIN TEMP:  20; 6HR MAX TEMP:  30;

THEDFORD       CLEAR     26  20  77 SW7       30.13F WCI  19
$$

NEZ041-046>049-061>064-073>077-083>087-191300-
SOUTH CENTRAL NEBRASKA

CITY           SKY/WX    TMP DP  RH WIND       PRES   REMARKS
GRAND ISLAND   CLEAR     26  23  88 SW6       30.18F WCI  19
6HR MIN TEMP:  25; 6HR MAX TEMP:  30;

AURORA         CLEAR     26  22  85 SW6       30.18F WCI  19
HASTINGS       CLEAR     27  19  72 SW5       30.19F WCI  22
6HR MIN TEMP:  26; 6HR MAX TEMP:  31;

HEBRON         CLEAR     23  20  90 CALM      30.23F
HOLDREGE       CLEAR     27  20  75 W5        30.19F WCI  22
KEARNEY        CLEAR     26  21  81 SW6       30.19F WCI  19
YORK           CLEAR     23  23 100 CALM      30.19F
$$

NEZ011>018-030>034-042>045-191300-
NORTHEAST NEBRASKA

CITY           SKY/WX    TMP DP  RH WIND       PRES   REMARKS
NORFOLK        CLOUDY    17  15  92 CALM      30.14F
6HR MIN TEMP:  17; 6HR MAX TEMP:  24;

ALBION         CLEAR     21  19  91 CALM      30.16S
BLAIR          CLEAR     25  20  82 CALM      30.17S
COLUMBUS       CLEAR     20  18  92 NW5       30.18  WCI  13
FREMONT        CLEAR     21  19  91 CALM      30.18F
TEKAMAH        CLEAR     18  14  84 S8        30.18F WCI   8
6HR MIN TEMP:  18; 6HR MAX TEMP:  28;

WAYNE          CLEAR     19  17  91 CALM      30.15S
$$

NEZ050>053-065>068-078-088>093-191300-
SOUTHEAST NEBRASKA

CITY           SKY/WX    TMP DP  RH WIND       PRES   REMARKS
LINCOLN        CLEAR     22  19  89 S6        30.22F WCI  14
6HR MIN TEMP:  21; 6HR MAX TEMP:  31;

OMAHA EPPLEY   CLEAR     25  17  72 S3        30.20F
6HR MIN TEMP:  24; 6HR MAX TEMP:  30;

BEATRICE       CLEAR     24  22  90 CALM      30.22F
FALLS CITY     PTCLDY    24  21  88 SW6       30.23F WCI  17
6HR MIN TEMP:  24; 6HR MAX TEMP:  31;

NEBRASKA CITY  CLEAR     25  23  93 SW8       30.21F WCI  16
PLATTSMOUTH    CLEAR     26  22  84 SW7       30.19F WCI  18
$$

NEZ044-045-051>053-067-191300-
OMAHA AREA

CITY           SKY/WX    TMP DP  RH WIND       PRES   REMARKS
OMAHA EPPLEY   CLEAR     25  17  72 S3        30.20F
6HR MIN TEMP:  24; 6HR MAX TEMP:  30;

BLAIR          CLEAR     25  20  82 CALM      30.17S
FREMONT        CLEAR     21  19  91 CALM      30.18F
MILLARD        CLEAR     26  23  87 CALM      30.20S
OFFUTT AFB     CLEAR     24  19  80 SW5       30.19F WCI  18
PLATTSMOUTH    CLEAR     26  22  84 SW7       30.19F WCI  18
WAHOO          FAIR      24  21  87 CALM      30.19F
$$




USA.gov is the U.S. government's official web portal to all federal, state and local government web resources and services.